Location: Arleux
(50.3632°N, 2.8721°E)
Time: 08:26:24
(UTC+00:00)

NOAA 18 - Visible Passes

Search period start: 11 May 2021 00:00
Search period end: 21 May 2021 00:00
Orbit: 840 x 861 km, 99.0° (Epoch: 11 May)

Date Brightness Start Highest point End Pass type
(mag) Time Alt. Az. Time Alt. Az. Time Alt. Az.
11 May 5.8 20:00:40 10° SE 20:05:46 42° ENE 20:10:54 10° N visible
11 May 6.4 21:41:48 11° SSW 21:46:31 35° W 21:51:32 10° NNW visible
12 May 6.1 21:29:41 12° SSW 21:34:32 43° W 21:39:45 10° NNW visible
13 May 5.8 21:17:34 12° S 21:22:34 53° W 21:27:57 10° NNW visible
14 May 5.5 21:05:27 11° S 21:10:37 66° WSW 21:16:06 10° NNW visible
14 May 7.7 22:51:03 10° W 22:52:22 11° W 22:53:40 10° WNW visible
15 May 5.3 20:53:20 10° SSE 20:58:41 81° WSW 21:04:12 10° NNW visible
15 May 7.5 22:37:31 10° WSW 22:40:14 14° W 22:43:00 10° NW visible
16 May 5.2 20:41:20 10° SSE 20:46:47 83° ENE 20:52:18 10° NNW visible
16 May 7.4 22:24:37 10° SW 22:28:09 17° W 22:31:43 10° NW visible
17 May 5.3 20:29:29 10° SSE 20:34:54 69° ENE 20:40:22 10° NNW visible
17 May 7.1 22:11:59 10° SW 22:16:05 21° W 22:20:14 10° NW visible
18 May 5.5 20:17:43 10° SE 20:23:02 56° ENE 20:28:24 10° N visible
18 May 6.9 21:59:31 10° SSW 22:04:02 26° W 22:08:37 10° NW visible
19 May 6.6 21:47:10 10° SSW 21:52:01 32° W 21:56:56 10° NNW visible
20 May 6.2 21:34:55 10° SSW 21:40:01 40° W 21:45:11 10° NNW visible
